COSMOS 2434 (721)

Last updated on Thu Nov 21 2024 00:03:11 GMT+0000 (Coordinated Universal Time)

1 32393U 07065A 24325.41641062 .00000006 00000+0 00000+0 0 9992 2 32393 64.3154 211.2865 0003736 69.8553 131.8248 2.13101308131545
UTC large
Height (km)
Speed (km/s)
/
Latitude / Longitude
Inclination (degrees)
Orbital Period (minutes)
Azimuth
Elevation
Range (km)
Doppler Factor

Next 0 passes for location: London (51.5072 / 0.1276)

Sorry there are no passes over London.